Weather in Marjyanovka

Russia / Omsk Oblast     54°57′33″N   72°38′19″E
temp.,
°C
wind,
m/s
gust,
m/s
humid.,
%
clouds,
%
prec.,
mm/h
press.,
hPa
HPBL,
m
8 august, mon
mon800:00+15nne48890 0.6 1013126
03:00+14nne379185 0.0 1013134
06:00+14nne479189 0.0 1014142
09:00+16nne488098 0.0 1015272
12:00+22ne68505 0.0 10141447
15:00+23ne6744100 0.0 10142336
18:00+21nne3754100 0.0 1014489
21:00+19nne3659100 0.0 1014141
9 august, tue
tue900:00+19nne3757100 0.0 1014177
03:00+18nne3864100 0.0 1014228
06:00+17nne4869100 0.0 1014247
09:00+18nne4971100 0.0 1015398
12:00+23ne58505 0.0 10141262
15:00+25nne683717 0.0 10132716
18:00+24nne6845100 0.0 10131937
21:00+21n41061100 0.0 1013284
10 august, wed
wed1000:00+18nne3677100 0.3 1013141
03:00+15nne34890 0.0 101259
06:00+14nne36890 0.0 101395
09:00+20ne46649 0.0 1013357
12:00+24ne564464 0.0 10131527
15:00+26nne56386 0.0 10122128
18:00+26nne56382 0.0 10122237
21:00+19nne356083 0.0 101362
11 august, thu
thu1100:00+18n47735 0.0 1013101
03:00+16nne36905 0.0 1013117
06:00+15nne37955 0.0 1014122
09:00+20nne46770 0.0 1015444
12:00+24nne565924 0.0 10151224
15:00+25nne5651100 0.1 10151634
18:00+25nne444883 0.1 10141832
21:00+21ne34584 0.0 101574
12 august, fri
fri1200:00+17ne34680 0.0 101558
03:00+16e22730 0.0 101514
06:00+16s22820 0.0 101424
09:00+22ssw35590 0.0 1014406
12:00+26ssw454614 0.0 10121808
15:00+29ssw5637100 0.0 10102600
18:00+28sw4540100 0.0 10091143
21:00+19se2478100 0.4 1009112